Weather History for Blakely, GA

Change the Weather History Date:

Monday, November 5, 2012

  Actual Average (KDHN) Record (KDHN)
Temperature  
Mean Temperature 58 °F 62 °F  
Max Temperature 73 °F 74 °F 88 °F (1946)
Min Temperature 44 °F 49 °F 31 °F (1952)
Degree Days  
Heating Degree Days 6 5  
Month to date heating degree days 24  
Since 1 July heating degree days 83  
Growing Degree Days 8 (Base 50)    
Moisture  
Dew Point 48 °F    
Average Humidity 69    
Maximum Humidity 100    
Minimum Humidity 33    
Precipitation  
Precipitation 0.00 in 0.08 in 1.00 in (1963)
Month to date precipitation 0.42  
Year to date precipitation 45.81  
Sea Level Pressure  
Sea Level Pressure 30.02 in    
Wind  
Wind Speed 2 mph (NNE)    
Max Wind Speed 7 mph    
Max Gust Speed 18 mph    
Visibility 10 miles    
Events Rain    
T = Trace of Precipitation, MM = Missing Value Source: NWS Daily Summary

Daily Weather History Graph

Daily Weather History Graph

Search for Another Location

Airport:

Trip Planner

Search our weather history database for the weather conditions in past years. The results will help you decide how hot, cold, wet, or windy it might be!

Date:

Astronomy

Nov. 05, 2012 Rise Set
Actual Time 6:59 AM EST 5:46 PM EST
Civil Twilight 6:33 AM EST 6:12 PM EST
Nautical Twilight 6:04 AM EST 6:41 PM EST
Astronomical Twilight 5:36 AM EST 7:09 PM EST
Moon 11:23 PM EST (11/5) 12:17 PM EST (11/5)
Length of Visible Light 11h 38m
Length of Day
10h 47m
Waning Gibbous, 63% of the Moon is Illuminated
Nov 5
Waning Gibbous
Nov 6
Last Quarter
Nov 13
New
Nov 20
First Quarter
Nov 28
Full

Hourly Weather History & Observations

Time (EST) Temp. Dew Point Humidity Pressure Visibility Wind Dir Wind Speed Gust Speed Precip Events Conditions
12:15 AM 60.8 °F 59.0 °F 94% 30.02 in 10.0 mi Calm Calm - N/A   Clear
12:35 AM 60.8 °F 57.2 °F 88% 30.03 in 10.0 mi NW 3.5 mph - N/A   Clear
12:55 AM 59.0 °F 55.4 °F 88% 30.03 in 10.0 mi Calm Calm - N/A   Clear
1:15 AM 59.0 °F 55.4 °F 88% 30.03 in 10.0 mi Calm Calm - N/A   Clear
1:35 AM 59.0 °F 55.4 °F 88% 30.03 in 10.0 mi Calm Calm - N/A   Clear
1:55 AM 59.0 °F 53.6 °F 82% 30.03 in 10.0 mi North 5.8 mph - N/A   Clear
2:15 AM 59.0 °F 51.8 °F 77% 30.03 in 10.0 mi North 4.6 mph - N/A   Clear
2:35 AM 59.0 °F 51.8 °F 77% 30.03 in 10.0 mi North 3.5 mph - N/A   Clear
2:55 AM 57.2 °F 51.8 °F 82% 30.04 in 10.0 mi North 3.5 mph - N/A   Clear
3:15 AM 55.4 °F 51.8 °F 88% 30.04 in 10.0 mi Calm Calm - N/A   Clear
3:35 AM 55.4 °F 50.0 °F 82% 30.04 in 10.0 mi North 3.5 mph - N/A   Clear
3:55 AM 55.4 °F 50.0 °F 82% 30.04 in 10.0 mi Calm Calm - N/A   Clear
4:15 AM 53.6 °F 50.0 °F 88% 30.04 in 10.0 mi Calm Calm - N/A   Clear
4:35 AM 51.8 °F 48.2 °F 88% 30.05 in 10.0 mi Calm Calm - N/A   Clear
4:55 AM 51.8 °F 46.4 °F 82% 30.05 in 10.0 mi Calm Calm - N/A   Clear
5:15 AM 50.0 °F 46.4 °F 87% 30.05 in 10.0 mi Calm Calm - N/A   Clear
5:35 AM 50.0 °F 46.4 °F 87% 30.06 in 10.0 mi Calm Calm - N/A   Clear
5:55 AM 50.0 °F 46.4 °F 87% 30.06 in 10.0 mi Calm Calm - N/A   Clear
6:15 AM 46.4 °F 44.6 °F 93% 30.06 in 10.0 mi Calm Calm - N/A   Clear
6:35 AM 46.4 °F 44.6 °F 93% 30.06 in 10.0 mi Calm Calm - N/A   Clear
6:55 AM 44.6 °F 44.6 °F 100% 30.06 in 10.0 mi Calm Calm - N/A   Clear
7:15 AM 44.6 °F 44.6 °F 100% 30.07 in 10.0 mi Calm Calm - N/A   Clear
7:35 AM 44.6 °F 44.6 °F 100% 30.08 in 10.0 mi Calm Calm - N/A   Clear
7:55 AM 46.4 °F 46.4 °F 100% 30.08 in 10.0 mi Calm Calm - N/A   Clear
8:15 AM 51.8 °F 46.4 °F 82% 30.08 in 10.0 mi Calm Calm - N/A   Clear
8:35 AM 53.6 °F 44.6 °F 72% 30.08 in 10.0 mi NNE 6.9 mph - N/A   Clear
8:55 AM 53.6 °F 44.6 °F 72% 30.08 in 10.0 mi NNE 3.5 mph - N/A   Clear
9:15 AM 55.4 °F 44.6 °F 67% 30.08 in 10.0 mi NE 4.6 mph - N/A   Clear
9:35 AM 59.0 °F 44.6 °F 59% 30.08 in 10.0 mi Calm Calm - N/A   Clear
9:55 AM 60.8 °F 44.6 °F 55% 30.08 in 10.0 mi ENE 4.6 mph - N/A   Clear
10:15 AM 60.8 °F 42.8 °F 52% 30.08 in 10.0 mi North 5.8 mph - N/A   Clear
10:35 AM 62.6 °F 42.8 °F 48% 30.08 in 10.0 mi NE 3.5 mph - N/A   Clear
10:55 AM 64.4 °F 42.8 °F 45% 30.07 in 10.0 mi Calm Calm - N/A   Clear
11:15 AM 66.2 °F 42.8 °F 43% 30.07 in 10.0 mi Calm Calm - N/A   Clear
11:35 AM 68.0 °F 42.8 °F 40% 30.06 in 10.0 mi NE 3.5 mph - N/A   Clear
11:55 AM 68.0 °F 41.0 °F 37% 30.05 in 10.0 mi NE 5.8 mph - N/A   Clear
12:15 PM 69.8 °F 42.8 °F 38% 30.04 in 10.0 mi ENE 6.9 mph - N/A   Clear
12:35 PM 69.8 °F 41.0 °F 35% 30.02 in 10.0 mi NE 3.5 mph - N/A   Clear
12:55 PM 71.6 °F 41.0 °F 33% 30.02 in 10.0 mi NNE 4.6 mph - N/A   Clear
1:15 PM 73.4 °F 42.8 °F 33% 30.01 in 10.0 mi North 5.8 mph - N/A   Clear
1:35 PM 73.4 °F 42.8 °F 33% 30.00 in 10.0 mi NNE 5.8 mph - N/A   Clear
1:55 PM 73.4 °F 42.8 °F 33% 29.99 in 10.0 mi NE 4.6 mph - N/A   Clear
2:15 PM 73.4 °F 42.8 °F 33% 29.98 in 10.0 mi NNE 5.8 mph - N/A   Clear
2:35 PM 73.4 °F 42.8 °F 33% 29.97 in 10.0 mi ESE 3.5 mph - N/A   Clear
2:55 PM 73.4 °F 42.8 °F 33% 29.97 in 10.0 mi ENE 4.6 mph - N/A   Clear
3:15 PM 73.4 °F 42.8 °F 33% 29.96 in 10.0 mi East 3.5 mph - N/A   Clear
3:35 PM 73.4 °F 42.8 °F 33% 29.97 in 10.0 mi Calm Calm - N/A   Clear
3:55 PM 73.4 °F 44.6 °F 36% 29.96 in 10.0 mi ENE 5.8 mph - N/A   Clear
4:15 PM 73.4 °F 42.8 °F 33% 29.95 in 10.0 mi Calm Calm - N/A   Clear
4:55 PM 71.6 °F 50.0 °F 46% 29.96 in 10.0 mi Calm Calm - N/A   Clear
5:15 PM 68.0 °F 50.0 °F 52% 29.97 in 10.0 mi Calm Calm - N/A   Clear
5:35 PM 64.4 °F 50.0 °F 59% 29.97 in 10.0 mi Calm Calm - N/A   Mostly Cloudy
5:55 PM 62.6 °F 51.8 °F 68% 29.97 in 10.0 mi Calm Calm - N/A   Mostly Cloudy
6:15 PM 62.6 °F 51.8 °F 68% 29.97 in 10.0 mi Calm Calm - N/A   Scattered Clouds
6:35 PM 62.6 °F 51.8 °F 68% 29.98 in 10.0 mi Calm Calm - N/A   Mostly Cloudy
6:55 PM 60.8 °F 51.8 °F 72% 29.98 in 10.0 mi Calm Calm - N/A   Overcast
7:15 PM 60.8 °F 53.6 °F 77% 29.98 in 10.0 mi Calm Calm - N/A   Overcast
7:35 PM 60.8 °F 53.6 °F 77% 29.98 in 10.0 mi Calm Calm - N/A   Overcast
7:55 PM 60.8 °F 53.6 °F 77% 29.99 in 10.0 mi Calm Calm - N/A   Overcast
8:15 PM 60.8 °F 53.6 °F 77% 30.00 in 10.0 mi Calm Calm - N/A   Overcast
8:35 PM 66.2 °F 44.6 °F 46% 30.00 in 10.0 mi South 4.6 mph 18.4 mph N/A Rain Light Rain
8:55 PM 60.8 °F 53.6 °F 77% 29.98 in 10.0 mi Calm Calm - N/A Rain Light Rain
9:15 PM 59.0 °F 53.6 °F 82% 29.97 in 10.0 mi Calm Calm - N/A   Overcast
9:35 PM 59.0 °F 53.6 °F 82% 29.96 in 10.0 mi NE 4.6 mph - N/A   Overcast
9:55 PM 59.0 °F 53.6 °F 82% 29.95 in 10.0 mi Calm Calm - N/A   Overcast
10:15 PM 59.0 °F 53.6 °F 82% 29.96 in 10.0 mi WNW 3.5 mph - N/A Rain Light Rain
10:35 PM 57.2 °F 53.6 °F 88% 29.95 in 10.0 mi Calm Calm - N/A   Overcast
10:55 PM 57.2 °F 55.4 °F 94% 29.94 in 10.0 mi Calm Calm - N/A   Overcast
11:15 PM 55.4 °F 55.4 °F 100% 29.93 in 10.0 mi Calm Calm - N/A   Overcast
11:35 PM 55.4 °F 55.4 °F 100% 29.93 in 10.0 mi Calm Calm - N/A   Overcast
11:55 PM 55.4 °F 53.6 °F 94% 29.92 in 10.0 mi Calm Calm - N/A   Overcast